Tracking 19792 objects as of 15-Jul-2019
HD Live streaming from Space Station
objects crossing your sky now

INS-1B

Track INS-1B now!
10-day predictions


NORAD ID: 41954
Int'l Code: 2017-008G
Perigee: 493.7 km
Apogee: 508.3 km
Inclination: 97.4 °
Period: 94.5 minutes
Semi major axis: 6871 km
RCS: Unknown
Launch date: February 15, 2017
Source: India (IND)
Launch site: SRIHARIKOTA (SRI)
aabbcc
Your satellite tracking list
Your tracking list is empty




NASA's NSSDC Master Catalog

Two Line Element Set (TLE):
1 41954U 17008G   19196.21954559  .00000899  00000-0  40040-4 0  9993
2 41954  97.3985 260.9126 0010629  58.6495 301.5781 15.23987771133841
Source of the keplerian elements: AFSPC